Location: Santaluz Observatory
(32.9930°N, 117.1510°W)
Time: 00:01:15
(UTC-08:00)

Daily predictions for brighter satellites

Satellite Brightness Start Highest point End
(mag) Time Altitude Azimuth Time Altitude Azimuth Time Altitude Azimuth
SL-16 R/B 4.3 03:39:13 22° ENE 03:39:13 22° ENE 03:43:24 10° ESE
Atlas 2A Centaur Rocket 4.4 04:03:21 22° SSE 04:03:21 22° SSE 04:05:04 10° ESE
USA 229 DEB 4.4 04:00:49 47° NNE 04:01:56 51° NE 04:08:57 10° SE
USA 229 4.4 04:00:52 47° NNE 04:02:02 51° NE 04:09:02 10° SE
Cosmos 2333 Rocket 4.4 04:41:50 12° SSW 04:41:50 12° SSW 04:42:17 10° SSW
Cosmos 1743 Rocket 4.5 04:42:14 41° SSE 04:42:14 41° SSE 04:45:05 10° S
DELTA 2 R/B (1) 3.4 04:45:41 78° W 04:46:03 87° NNW 04:51:38 10° ENE
COSMO-SKYMED 1 3.6 04:45:56 10° SSE 04:50:03 45° ENE 04:53:20 15° N
Cosmos 304 Rocket 3.6 05:00:38 53° NNW 05:01:44 80° WSW 05:06:29 10° SSE
GPS 2-05 Rocket1 3.9 05:03:05 37° NE 05:03:05 37° NE 05:05:22 10° ENE
Ariane Rocket 3.6 05:01:11 10° NNE 05:06:13 58° ESE 05:11:13 10° S
Cosmos 1500 Rocket 3.4 05:05:52 47° NNW 05:07:04 72° W 05:11:30 10° S
Cosmos 2233 Rocket 4.0 05:01:22 10° SSW 05:07:24 52° W 05:13:32 10° N
Cosmos 1328 3.6 05:06:42 53° NNW 05:07:36 84° W 05:11:36 10° S
CZ-3 R/B 4.4 05:03:21 23° WSW 05:09:05 26° WSW 05:17:00 10° S
Cosmos 2227 4.0 05:03:46 10° SSW 05:09:21 74° WNW 05:14:59 10° NNE
ISS -3.3 05:14:39 71° NNE 05:14:47 72° NE 05:18:00 10° SE
Cosmos 2237 Rocket 4.0 05:19:57 14° SW 05:19:57 14° SW 05:21:08 10° SW
OAO 2 Rocket 3.1 05:17:32 41° WNW 05:19:15 88° NNE 05:24:11 10° ESE
ATLAS 2A CENTAUR R/B 4.4 05:05:54 24° W 05:19:39 58° SSW 05:25:11 10° ESE
SKYMED 3 4.4 05:15:43 10° S 05:20:02 76° WSW 05:23:44 14° NNW
Thor Agena Rocket 4.3 05:18:08 10° SSW 05:22:45 31° W 05:23:06 31° W
ATLAS 2A CENTAUR R/B 3.3 05:21:30 23° SW 05:23:17 32° SSW 05:25:31 10° SE
SL-16 R/B 2.5 05:21:11 30° WNW 05:23:21 43° WSW 05:28:40 10° S
ATLAS 3B CENTAUR R/B 4.3 05:24:06 10° SW 05:29:35 43° SSE 05:43:54 10° E
Cosmos 1703 4.1 05:27:11 10° N 05:31:01 51° E 05:34:51 10° SSE
Cosmos 2034 Rocket 4.2 05:25:21 10° S 05:31:29 75° E 05:37:43 10° N
Meteor 1-28 Rocket 3.1 05:28:12 10° S 05:31:57 86° W 05:35:43 10° NNW
Cosmos 1271 Rocket 3.2 05:31:45 10° SW 05:35:16 34° W 05:38:46 10° NNW
SKYMED 2 3.9 05:33:58 10° S 05:38:06 44° W 05:41:58 12° NNW
Cosmos 1626 3.2 05:35:23 10° N 05:39:00 46° E 05:42:35 10° SSE
Gbstr 26 Del rocket 3.7 05:36:07 10° SW 05:41:11 82° SE 05:47:35 10° NE
Cosmos 2058 2.9 05:37:58 10° NNW 05:42:02 57° W 05:46:05 10° S
Cosmos 773 Rocket 3.9 05:38:47 10° NNW 05:44:05 76° WSW 05:49:21 10° S
Cosmos 1513 Rocket 4.4 05:39:25 10° SSW 05:45:39 73° W 05:52:01 10° N
YAOGAN 1 4.1 05:43:21 10° NNE 05:47:25 39° E 05:51:28 10° SSE
Cosmos 1184 Rocket 3.8 05:44:26 10° N 05:47:39 49° E 05:50:52 10° SSE
OPS 8737 4.5 05:44:58 10° SSW 05:48:37 79° ESE 05:51:48 10° NNE
Cosmos 2221 2.9 05:45:46 10° SSW 05:49:50 40° W 05:53:54 10° N
Cosmos 1340 Rocket 3.1 05:46:52 10° NNW 05:50:37 44° W 05:54:24 10° SSW
SL-14 R/B 4.3 05:52:39 13° NW 05:55:29 26° W 05:58:51 10° SSW
Cosmos 292 Rocket 3.8 05:52:57 10° NNW 05:57:45 85° ENE 06:02:34 10° SSE
Cosmos 1666 Rocket 3.8 05:54:11 10° N 05:58:39 78° E 06:03:07 10° S
Tiangong 2 1.8 05:57:48 18° W 05:59:40 35° NNW 06:02:35 10° NE
Cosmos 1464 Rocket 4.3 05:55:01 10° SSW 06:01:01 43° W 06:06:58 10° N
Helios 1B rocket 4.2 05:59:51 10° SE 06:03:33 34° ENE 06:07:16 10° N
Cosmos 1943 3.8 05:58:52 10° NNW 06:04:31 61° ENE 06:10:06 10° SSE
Cosmos 1356 Rocket 3.4 06:00:44 10° NNW 06:04:49 63° W 06:08:57 10° S
APEX 3.2 06:00:42 10° SSW 06:05:01 87° ESE 06:08:25 10° NNE
SMAP 3.2 06:02:06 10° NNE 06:06:47 81° ESE 06:11:26 10° S
NOSS 3-1 (A) 4.2 05:58:56 10° NNW 06:06:49 77° WSW 06:15:17 10° SSE
ERBS 3.0 06:06:37 12° WNW 06:09:27 38° SW 06:12:38 10° SSE
Cosmos 2344 3.6 06:04:19 10° SW 06:12:02 74° WNW 06:20:18 10° NNE
SJ-7 4.4 06:08:43 10° N 06:12:45 87° WNW 06:16:50 10° SSW
CORIOLIS 4.5 06:07:57 10° NNE 06:13:24 75° ESE 06:18:49 10° S
ATLAS 2AS CENTAUR R/B 4.2 06:08:01 10° NNW 06:15:26 39° NE 06:22:19 10° ESE
Cosmos 1908 3.5 06:18:30 10° SSW 06:22:08 43° W 06:25:48 10° N
Cosmos 2263 Rocket 2.3 06:17:24 10° SW 06:22:57 58° WNW 06:28:35 10° NNE
SPOT 3 Rocket 3.6 06:17:47 10° NNE 06:23:01 87° WNW 06:28:14 10° SSW
USA 234 4.1 06:20:38 10° ESE 06:26:49 46° NE 06:33:01 10° NNW
Cosmos 1603 4.4 06:22:31 10° NW 06:27:33 34° WSW 06:32:35 10° SSW
